User: anonymous   Login
Location: Bismarck
(46.7731°N, 100.8200°W)
Time: 08:33:54
(UTC-05:00)
Language:

Cosmos 2219 Rocket - Orbit

View from above orbital plane
View from above orbital plane
View from above satellite
View from above satellite

Ground track
Ground track

The orbit data is extracted from the following two-line orbital elements,

1 22220U 92076B   17227.86980699 +.00000020 +00000-0 +34064-4 0  9999
2 22220 071.0005 293.6218 0013114 192.1956 281.0940 14.16419801278890
Epoch (UTC): 15 August 2017 20:52:31
Eccentricity: 0.0013114
inclination: 71.0005°
perigee height: 828 km
apogee height: 847 km
right ascension of ascending node: 293.6218°
argument of perigee: 192.1956°
revolutions per day: 14.16419801
mean anomaly at epoch: 281.0940°
orbit number at epoch: 27889

The dashed part of the orbit path shows where the satellite is in the earth's shadow,  

DLR